Starlink 36255

operational
NORAD ID: 67102 Int'l Des: 2025-299 Owner: SPXS Country: US Constellation: starlink
LEOCIRCULAR

About Starlink 36255

Description loading...

Live Position

Loading 3D Globe...

Upcoming Passes

Altitude History

Altitude vs Time

uPlot chart will show altitude changes over time

Two-Line Element Set

1 67102U 25299A 26047.09103727 .00050047 00000-0 11954-2 0 9999
2 67102 43.0025 293.5269 0001257 308.3316 51.7427 15.40751999 9787
Epoch: Feb 16, 2026 • Age: 22 hours

Current Status

Altitude 442.3 km
Velocity 7.65 km/s
Sub-Earth Point 12.33°N, 154.1°E
Launch Date Dec 15, 2025
Age 0.1 years
Type internet

Technical Details

Classification Payload
Mass 575.00 kg
Dry Mass 530.00 kg
Total Mass 575.00 kg
Length 0.30 m
Diameter 4.10 m
Span 29.00 m
Shape Box + pan
Manufacturer SPXS
Bus Type Starlink V2MO
Phase Status In Orbit
Owner/State SPXS/US

Large Constellations

Loading constellations...